SCP
-0 -0 -0 -0 -0 0 0 0 0 -0 1 2 4 2 2 2 1 1 1 1 2 0
0 -0 0 0 -0 0 0 0 0 1 3 4 4 3 2 2 2 1 2 0 1 2
0 -0 0 0 0 0 -0 0 0 0 0 3 2 2 1 3 2 2 1 1 0 2
0 0 0 0 0 0 0 0 0 0 -0 3 3 3 3 2 2 2 1 2 1 1
0 0 0 0 0 0 0 1 0 0 -0 1 3 3 3 2 3 3 2 1 2 1
0 0 0 0 0 0 0 0 1 0 -0 0 2 3 3 3 3 2 2 2 1 1
0 0 0 0 0 0 0 0 0 0 0 0 0 0 2 2 2 2 1 2 1 1
-0 0 0 0 0 0 0 0 0 0 0 0 0 0 0 1 1 1 1 1 2 1
-0 0 0 0 0 0 0 0 0 0 0 0 0 0 0 0 0 0 1 1 1 1
0 0 0 0 0 0 0 0 1 0 0 0 0 0 0 0 0 0 0 1 1 1
0 0 0 0 0 0 0 0 1 0 0 0 0 0 0 0 -0 -0 0 1 1 2
0 0 0 0 0 0 0 0 1 0 0 0 0 0 0 -0 -0 -0 0 2 2 2
0 0 0 0 0 0 1 0 1 1 0 0 0 0 0 0 -0 0 2 3 1 1
0 0 0 0 0 0 1 0 1 1 0 0 0 0 0 0 0 0 2 1 1 0
Wind_Speed_500mb
69 79 78 66 73 66 90 94 136 116 88 92 108 103 99 103 83 81 94 80 68 58
65 71 76 60 55 81 74 87 100 132 139 120 112 109 93 99 88 80 83 86 71 65
68 67 73 67 36 58 88 80 88 107 123 117 111 102 85 79 85 83 79 88 88 76
68 67 65 68 41 55 48 69 69 103 145 120 106 94 94 88 84 87 83 91 92 84
68 63 60 62 51 38 67 47 61 100 89 138 110 103 99 97 88 90 87 85 84 91
65 65 61 52 60 38 38 55 61 64 89 61 90 99 98 98 87 87 92 83 81 79
65 56 55 54 51 50 32 42 40 29 44 65 10 51 79 86 84 78 89 84 81 77
64 53 58 48 45 49 36 36 33 36 37 47 59 55 11 58 67 66 74 85 80 80
64 53 51 47 43 43 41 30 35 33 47 77 76 77 53 56 60 56 74 81 78 79
65 55 49 51 43 40 43 21 15 37 39 54 63 75 81 82 80 76 81 84 79 78
64 55 47 48 38 37 35 30 23 29 42 45 71 64 73 90 99 75 88 87 74 67
65 57 46 39 44 36 36 33 30 36 60 72 56 97 79 110 116 108 91 79 68 72
64 54 47 43 35 29 28 20 22 32 57 66 69 70 132 129 121 84 82 75 74 70
55 51 41 39 36 26 21 14 10 30 47 60 79 70 90 144 135 82 82 80 68 57
Wind_Direction_500mb
292 295 303 299 274 262 246 249 222 238 220 221 210 210 209 212 211 202 197 194 199 193
300 297 307 308 277 252 246 250 226 225 219 223 211 209 208 209 210 207 205 199 194 195
300 303 308 313 296 264 249 234 232 227 223 214 212 210 207 203 212 212 206 203 197 193
307 307 311 315 297 263 262 245 236 221 235 212 209 204 206 200 208 210 206 203 200 196
307 309 311 310 319 283 252 250 241 232 247 208 202 200 202 204 204 202 209 204 206 203
307 310 309 313 318 308 269 250 213 233 245 239 196 201 201 203 199 205 207 208 205 209
309 303 312 314 314 322 279 253 265 220 239 241 175 194 201 202 203 205 210 211 211 207
309 305 311 309 314 312 314 252 241 245 253 234 234 250 248 196 206 209 211 212 213 213
311 309 308 308 309 301 314 263 247 240 230 215 214 229 209 220 214 216 222 216 212 212
310 305 303 302 302 301 311 290 243 262 227 218 213 208 207 216 216 210 221 216 207 205
308 302 294 300 286 308 299 278 234 256 231 217 207 188 197 211 214 223 217 214 209 204
302 292 277 279 287 300 301 287 263 251 224 211 218 200 202 197 218 217 210 205 200 202
301 289 272 269 276 278 288 274 236 233 212 212 198 195 198 208 212 215 193 194 197 208
305 286 262 255 261 271 284 290 239 212 210 205 210 209 214 210 220 210 194 193 198 199
Wind_Speed_850mb
69 79 78 66 73 66 90 94 136 116 88 92 108 103 99 103 83 81 94 80 68 58
65 71 76 60 55 81 74 87 100 132 139 120 112 109 93 99 88 80 83 86 71 65
68 67 73 67 36 58 88 80 88 107 123 117 111 102 85 79 85 83 79 88 88 76
68 67 65 68 41 55 48 69 69 103 145 120 106 94 94 88 84 87 83 91 92 84
68 63 60 62 51 38 67 47 61 100 89 138 110 103 99 97 88 90 87 85 84 91
65 65 61 52 60 38 38 55 61 64 89 61 90 99 98 98 87 87 92 83 81 79
65 56 55 54 51 50 32 42 40 29 44 65 10 51 79 86 84 78 89 84 81 77
64 53 58 48 45 49 36 36 33 36 37 47 59 55 11 58 67 66 74 85 80 80
64 53 51 47 43 43 41 30 35 33 47 77 76 77 53 56 60 56 74 81 78 79
65 55 49 51 43 40 43 21 15 37 39 54 63 75 81 82 80 76 81 84 79 78
64 55 47 48 38 37 35 30 23 29 42 45 71 64 73 90 99 75 88 87 74 67
65 57 46 39 44 36 36 33 30 36 60 72 56 97 79 110 116 108 91 79 68 72
64 54 47 43 35 29 28 20 22 32 57 66 69 70 132 129 121 84 82 75 74 70
55 51 41 39 36 26 21 14 10 30 47 60 79 70 90 144 135 82 82 80 68 57
Wind_Direction_850mb
292 295 303 299 274 262 246 249 222 238 220 221 210 210 209 212 211 202 197 194 199 193
300 297 307 308 277 252 246 250 226 225 219 223 211 209 208 209 210 207 205 199 194 195
300 303 308 313 296 264 249 234 232 227 223 214 212 210 207 203 212 212 206 203 197 193
307 307 311 315 297 263 262 245 236 221 235 212 209 204 206 200 208 210 206 203 200 196
307 309 311 310 319 283 252 250 241 232 247 208 202 200 202 204 204 202 209 204 206 203
307 310 309 313 318 308 269 250 213 233 245 239 196 201 201 203 199 205 207 208 205 209
309 303 312 314 314 322 279 253 265 220 239 241 175 194 201 202 203 205 210 211 211 207
309 305 311 309 314 312 314 252 241 245 253 234 234 250 248 196 206 209 211 212 213 213
311 309 308 308 309 301 314 263 247 240 230 215 214 229 209 220 214 216 222 216 212 212
310 305 303 302 302 301 311 290 243 262 227 218 213 208 207 216 216 210 221 216 207 205
308 302 294 300 286 308 299 278 234 256 231 217 207 188 197 211 214 223 217 214 209 204
302 292 277 279 287 300 301 287 263 251 224 211 218 200 202 197 218 217 210 205 200 202
301 289 272 269 276 278 288 274 236 233 212 212 198 195 198 208 212 215 193 194 197 208
305 286 262 255 261 271 284 290 239 212 210 205 210 209 214 210 220 210 194 193 198 199